Regional Weather Roundup
Issued by NWS

Home | Current Version | Previous Version | Text Only | Print | Product List | Glossary Off
Versions: 1 2 3 4 5 6 7 8 9 10 11 12 13 14 15 16 17 18 19 20 21 22 23 24 25 26 27 28 29 30 31 32 33 34 35 36 37 38 39 40 41 42 43 44 45 46 47 48 49 50

000
ASUS43 KOAX 301602
RWRNE

WEATHER ROUNDUP FOR NEBRASKA
NATIONAL WEATHER SERVICE OMAHA NE
1100 AM CDT MON MAR 30 2015

NOTES: SATELLITE DATA IS BEING USED TO AUGMENT CLOUD COVER ABOVE
       12000 FEET.
       "FAIR" INDICATES FEW OR NO CLOUDS BELOW 12,000 FEET WITH NO
       SIGNIFICANT WEATHER AND/OR OBSTRUCTIONS TO VISIBILITY.

  * THESE STATIONS DO NOT REPORT WEATHER SUCH AS RAIN...SNOW OR FOG.

NEZ001>004-019>022-054>056-301700-
NEBRASKA PANHANDLE

CITY           SKY/WX    TMP DP  RH WIND       PRES   REMARKS
SCOTTSBLUFF    SUNNY     58  25  28 W13       30.12R
ALLIANCE       SUNNY     64  24  21 NW14G20   30.08S
CHADRON        MOSUNNY   62  27  26 NW15      30.07S
KIMBALL        SUNNY     61  17  18 N17G26    30.13R
SIDNEY         SUNNY     62  20  19 NW21G28   30.12R
$$

NEZ057>060-069>072-079>082-301700-
SOUTHWEST NEBRASKA

CITY           SKY/WX    TMP DP  RH WIND       PRES   REMARKS
NORTH PLATTE   SUNNY     59  27  29 W10       30.06S
IMPERIAL         N/A     59  25  27 NW10      30.07S
MCCOOK         SUNNY     67  28  23 SW14      30.05F
$$

NEZ005>010-023>029-035>040-094-301700-
NORTH CENTRAL NEBRASKA

CITY           SKY/WX    TMP DP  RH WIND       PRES   REMARKS
VALENTINE      SUNNY     65  26  23 W12       30.01R
AINSWORTH      SUNNY     64  25  23 W12       30.01S
BROKEN BOW     SUNNY     64  28  25 SW16      30.03F
ORD            MOSUNNY   63  22  20 SW24G32   30.02F
$$

NEZ041-046>049-061>064-073>077-083>087-301700-
SOUTH CENTRAL NEBRASKA

CITY           SKY/WX    TMP DP  RH WIND       PRES   REMARKS
GRAND ISLAND   SUNNY     62  24  23 SW26G33   30.07F
AURORA         SUNNY     63  24  23 SW26      30.07S
HASTINGS       SUNNY     63  27  25 SW13G24   30.07F
HEBRON         SUNNY     58  26  28 SW17G25   30.11F
HOLDREGE       SUNNY     60  25  26 SW20      30.07F
KEARNEY *      SUNNY     61  25  25 SW20G26   30.07F
YORK           SUNNY     63  27  25 SW20      30.07F
$$

NEZ011>018-030>034-042>045-301700-
NORTHEAST NEBRASKA

CITY           SKY/WX    TMP DP  RH WIND       PRES   REMARKS
NORFOLK        MOSUNNY   64  21  19 SW18G31   30.00F
ALBION         MOSUNNY   62  18  18 SW24G33   30.03F
BLAIR          SUNNY     61  28  27 SW20G28   30.05F
COLUMBUS *     SUNNY     61  27  27 SW18G26   30.07F
FREMONT        MOSUNNY   64  27  24 SW12G21   30.05F
$$

NEZ050>053-065>068-078-088>093-301700-
SOUTHEAST NEBRASKA

CITY           SKY/WX    TMP DP  RH WIND       PRES   REMARKS
LINCOLN        SUNNY     63  29  27 SW17      30.10F
OMAHA EPPLEY   PTSUNNY   62  28  27 SW10      30.06F
BEATRICE       SUNNY     61  32  33 SW17      30.11F
FALLS CITY     SUNNY     64  28  25 SW16      30.12F
NEBRASKA CITY  SUNNY     64  23  20 SW20      30.10F
$$

NEZ044-045-051>053-067-301700-
OMAHA AREA

CITY           SKY/WX    TMP DP  RH WIND       PRES   REMARKS
OMAHA EPPLEY   PTSUNNY   62  28  27 SW10      30.06F
BLAIR          SUNNY     61  28  27 SW20G28   30.05F
FREMONT        MOSUNNY   64  27  24 SW12G21   30.05F
WAHOO          FAIR      63  23  21 SW21G28   30.06F
$$



USA.gov is the U.S. government's official web portal to all federal, state and local government web resources and services.